Погода в Казгородоке

Хотите узнать прогноз погоды в Казгородоке? Тогда Вам сюда: Погода в Казгородоке

Поиск расширенной информации на нашем сайте:

Полезная информация:

Новости сайта



02.01.2020
Опубликован Долгосрочный прогноз погоды по городам России и ближнего зарубежья на январь 2020 года.
Карты: Прогноз на январь и февраль 2020 года, Сравнение прогнозируемой аномалии приземной температуры воздуха на январь 2020 года по разным моделям.




Погода в Казгородоке - сегодня

Время (UTC), дата Ветер
(°,м/с) 
Видим.   Явления Облачность Т
(°С)
Тd
(°С)
f(%) Тe
(°С)
Pmin
(гПа)
dP
(гПа)
Po
(мм)
O2
(г/м3)
Тmin Tmax R s Состояние
почвы
09 22.10.21 250 (З) 10-10{18}  20000 м    9/9 600 м кучево-дожд. 
[Cb cap]
+4.2 -6.2 47 1023.2  -0.7  729  290           
12 22.10.21 240 (ЮЗ) 8-16{17}  20000 м    10/10 600 м кучево-дожд. 
[Cb cap]
+2.4 -2.8 68 -1  1024.6  730  292           
15 22.10.21 240 (ЮЗ) 6-14  н/о  слаб. ливневой снег  10/10 600 м кучево-дожд. 
[Cb cap]
+1 -0.7 88 -2  1026.5  1.5  731  293    +4.2       
18 22.10.21 360 (С) н/о  {ливн. осадки}  10/10 600 м кучево-дожд. 
[Cb cap]
+0.4 -0.2 96 -3  1026.9  0.3  731  294    +4.2  0.0     
21 22.10.21 300 (СЗ) 5{15}  н/о  {ливн. осадки}  10/10 600 м кучево-дожд. 
[Cb cap]
+1 +0.5 96 -2  1026.7  -0.1  731  293           
00 23.10.21 260 (З) н/о  {ливн. осадки}  10/10 600 м 
[Sc]
+1.8 +0.5 91 1026  -0.4  731  292           
03 23.10.21 240 (ЮЗ) 20000 м  {дождь}  10/10 600 м 
[Sc]
+2.2 +1.7 96 1026.4  0.3  731  292      0.5     
06 23.10.21 250 (З) 20000 м  {дождь}  6/4 600 м средняя 
[Sc|Ac lent]
+5.6 +1.7 76 +4  1025.5  -0.2  731  288  +0.4    0.5     
09 23.10.21 260 (З) 8-15{17}  20000 м    4/3 600 м средняя 
[Sc|Ac lent]
+10 +2.1 58 +8  1024.2  -0.4  730  284           
12 23.10.21 260 (З) 3{15}  20000 м    4/3 600 м средняя 
[Sc|Ac lent]
+11 +3.4 59 +11  1024.5  0.5  731  282           
15 23.10.21 240 (ЮЗ) н/о    5/5 600 м 
[Sc]
+7.8 +2.1 67 +7  1026.5  1.3  732  286    +11       
18 23.10.21 250 (З) н/о    4/4 600 м 
[Sc]
+8.2 +2.6 68 +7  1027.4  0.9  732  286    +11       
21 23.10.21 240 (ЮЗ) н/о    8/8 600 м 
[Sc]
+7 +1.1 66 +6  1028  0.3  733  288           
00 24.10.21 230 (ЮЗ) н/о    8/8 600 м 
[Sc]
+6.8 -0.4 60 +6  1028  733  288           
03 24.10.21 240 (ЮЗ) 20000 м    9/9 600 м 
[Sc]
+7 -0.1 61 +6  1028.4  0.4  733  288           
06 24.10.21 250 (З) 20000 м    8/8 600 м 
[Sc]
+13.2 +1.2 44 +12  1027.3  0.1  733  282  +6.8         
09 24.10.21 280 (З) 20000 м    8/6 600 м средняя 
[Sc|Ac lent]
+13.8 +2.7 47 +13  1026.1  -1  732  280           
12 24.10.21 220 (ЮЗ) 20000 м    4/4 600 м средняя 
[Ac trans]
+12 +0 44 +12  1025.9  -0.6  732  282           
15 24.10.21 190 (Ю) н/о    ясно 
+4 -0.2 74 +3  1026.5  -0.8  731  290    +13.8       
18 24.10.21 190 (Ю) н/о    ясно 
+2.8 -0.4 79 +2  1025.6  -1.1  730  291    +13.8       
21 24.10.21 200 (Ю) н/о    ясно 
+1.8 -1 82 +1  1024.7  -1  730  292           
00 25.10.21 180 (Ю) н/о    ясно 
+1.4 -1.4 82 +1  1023.8  -0.9  729  292           
03 25.10.21 190 (Ю) 20000 м    4/0 средняя 
[Ac lent]
+2 -0.1 86 +1  1023.3  -0.4  729  291           
06 25.10.21 240 (ЮЗ) 20000 м    ясно 
+10.4 +1.4 54 +11  1021.3  -0.4  728  282  +1.4         
09 25.10.21 230 (ЮЗ) 20000 м    5/0 средняя 
[Ac lent]
+13 +0.3 42 +13  1018.7  -2.1  727  279           
Время (UTC), дата Ветер
(°,м/с) 
Видим.   Явления Облачность Т
(°С)
Тd
(°С)
f(%) Тe
(°С)
Pmin
(гПа)
dP
(гПа)
Po
(мм)
O2
(г/м3)
Тmin Tmax R s Состояние
почвы

Для получения пояснительной информации подведите курсор к названию столбца.

ПОГОДА в Казгородоке - архив

Всё, что Вы хотите узнать о погоде в Казгородоке - удобно и подробно!

Выберите нужную дату (начиная с 1 января 2019* года) и нажмите кнопку "Найти".
Будут отображены архивные сводки погоды по пункту Казгородок, начиная с указанной даты.


Отображать данные в формате CSV (для использования в таблицах Excel)


Внимание! Наш архив погоды предназначен исключительно для личного некоммерческого использования в познавательных целях. Если Вам необходимы официальные справки о состоянии погоды (для производственных, юридических, коммерческих и т.п. целей), обращайтесь в органы Росгидромета.

*Примечание: данная дата относится к архиву по метеостанциям СССР (Россия, СНГ, Балтия).
Архив по метеостанциям Зарубежной Европы и Азии (кроме Китая) хранится 10 дней, по другим регионам земного шара (Китай, Африка, Америка, Австралия, Океания) - 1 день.

Казгородок - район местоположения метеостанции


Название, широта, долгота, высота метеостанции:
Казгородок 49.9°ш. 71.6°д. 422 м над ур. моря [Казахстан]

Дополнительная информация

В oтличие oт бoльшинства пoгoдных сайтoв мы публикуем пoдрoбную метеoинфoрмацию в детальнoм прoфессиoнальнoм фoрмате.

Характеристики температуры и влажнoсти вoздуха измеряются на высoте 2 м в тени вдали oт зданий и деревьев.
Скoрoсть ветра измеряется на высoте 10 м (на урoвне рoста челoвека скoрoсть ветра ниже в 1.5-2 раза). Если метеoстанция нахoдится в гoрoде или в лесу, тo скoрoсть ветра занижена на 2-4 м/с пo сравнению с oткрытым местoм. Скoрoсть ветра над акватoриями крупных рек и oзёр, а также на вершинах хoлмoв на 2-5 м/с выше, чем в oбычных услoвиях.
Атмoсфернoе давление в разных тoчках местнoсти мoжет значительнo oтличаться oт давления на метеoстанции, в зависимoсти oт услoвий рельефа (при пoдъёме на 10 м давление пoнижается примернo на 1 мм рт.ст.).